Warsaw, Poland

12:29 PM CEST on August 20, 2017 (GMT +0200)
Okecie

Weather History for EPWA - May, 2013

Change the Weather History Date:

Thursday, May 9, 2013

  Actual Average Record
Temperature  
Mean Temperature 68 °F -  
Max Temperature 79 °F 68 °F 82 °F (2002)
Min Temperature 58 °F 48 °F 32 °F (2017)
Cooling Degree Days 4    
Growing Degree Days 18 (Base 50)    
Moisture  
Dew Point 53 °F    
Average Humidity 55    
Maximum Humidity 82    
Minimum Humidity 23    
Precipitation  
Precipitation 0.00 in 0.08 in - ()
Sea Level Pressure  
Sea Level Pressure 29.99 in    
Wind  
Wind Speed 6 mph ()    
Max Wind Speed 13 mph    
Max Gust Speed 29 mph    
Visibility 10.8 miles    
Events      
Averages and records for this station are not official NWS values.
T = Trace of Precipitation, MM = Missing Value Source: Averaged Metar Reports

Daily Weather History Graph

Daily Weather History Graph

Search for Another Location

Airport or City:

Trip Planner

Search our weather history database for the weather conditions in past years. The results will help you decide how hot, cold, wet, or windy it might be!

Date:

Astronomy

May. 09, 2013 Rise Set
Actual Time 4:51 AM CEST 8:14 PM CEST
Civil Twilight 4:10 AM CEST 8:56 PM CEST
Nautical Twilight 3:15 AM CEST 9:51 PM CEST
Astronomical Twilight 1:58 AM CEST 11:10 PM CEST
Moon 4:30 AM CEST (5/9) 7:50 PM CEST (5/9)
Length of Visible Light 16h 45m
Length of Day
15h 23m
Waning Crescent, 0% of the Moon is Illuminated
May 9
Waning Crescent
May 10
New
May 18
First Quarter
May 25
Full
May 31
Last Quarter

Hourly Weather History & Observations

Time (CEST) Temp. Dew Point Humidity Pressure Visibility Wind Dir Wind Speed Gust Speed Precip Events Conditions
12:00 AM 68.0 °F 53.6 °F 60% 30.01 in - SE 6.9 mph - N/A   Clear
12:30 AM 68.0 °F 53.6 °F 60% 30.01 in - ESE 6.9 mph - N/A   Clear
1:00 AM 66.2 °F 53.6 °F 64% 30.01 in - SE 6.9 mph - N/A   Clear
1:30 AM 64.4 °F 53.6 °F 68% 30.01 in - ESE 6.9 mph - N/A   Clear
2:00 AM 64 °F 52 °F 55% 30.01 in 12 mi SE 6.7 mph - -  
2:00 AM 64.4 °F 53.6 °F 68% 30.01 in - SE 6.9 mph - N/A   Clear
2:30 AM 62.6 °F 51.8 °F 68% 30.01 in - SE 6.9 mph - N/A   Clear
3:00 AM 62.6 °F 51.8 °F 68% 30.01 in - SE 5.8 mph - N/A   Clear
3:30 AM 60.8 °F 51.8 °F 72% 30.01 in - ESE 5.8 mph - N/A   Clear
4:00 AM 60.8 °F 53.6 °F 77% 30.01 in - SE 3.5 mph - N/A   Clear
4:30 AM 59.0 °F 53.6 °F 82% 30.01 in - ESE 5.8 mph - N/A   Clear
5:00 AM 60 °F 51 °F 65% 30.00 in 12 mi SE 6.7 mph - -   Scattered Clouds
5:00 AM 60.8 °F 51.8 °F 72% 29.98 in - SE 5.8 mph - N/A   Clear
5:30 AM 60.8 °F 51.8 °F 72% 29.98 in - Variable 2.3 mph - N/A   Clear
6:00 AM 60.8 °F 51.8 °F 72% 30.01 in - Variable 2.3 mph - N/A   Clear
6:30 AM 60.8 °F 51.8 °F 72% 30.01 in - SE 5.8 mph - N/A   Clear
7:00 AM 62.6 °F 51.8 °F 68% 30.01 in - Variable 2.3 mph - N/A   Clear
7:30 AM 64.4 °F 51.8 °F 64% 30.01 in - SSE 5.8 mph - N/A   Clear
8:00 AM 65 °F 53 °F 55% 30.02 in 12 mi SSE 4.5 mph - -   Scattered Clouds
8:00 AM 66.2 °F 53.6 °F 64% 30.01 in - SSE 6.9 mph - N/A   Clear
8:30 AM 68.0 °F 53.6 °F 60% 30.01 in - SSE 5.8 mph - N/A   Clear
9:00 AM 69.8 °F 55.4 °F 60% 30.01 in - SE 4.6 mph - N/A   Clear
9:30 AM 71.6 °F 55.4 °F 57% 30.01 in - South 4.6 mph - N/A   Clear
10:00 AM 73.4 °F 55.4 °F 53% 30.01 in - Variable 2.3 mph - N/A   Clear
10:30 AM 75.2 °F 57.2 °F 53% 30.01 in - South 4.6 mph - N/A   Clear
11:00 AM 75 °F 56 °F 41% 30.01 in 12 mi SSE 4.5 mph - -   Clear
11:00 AM 77.0 °F 55.4 °F 47% 30.01 in - SSE 5.8 mph - N/A   Clear
11:30 AM 77.0 °F 57.2 °F 50% 30.01 in - South 4.6 mph - N/A   Clear
12:00 PM 77.0 °F 55.4 °F 47% 30.01 in 6.2 mi South 6.9 mph - N/A   Partly Cloudy
12:30 PM 78.8 °F 53.6 °F 42% 30.01 in 6.2 mi South 10.4 mph - N/A   Partly Cloudy
1:00 PM 78.8 °F 55.4 °F 44% 30.01 in - SSW 10.4 mph - N/A   Clear
1:30 PM 78.8 °F 51.8 °F 39% 30.01 in - SSW 12.7 mph - N/A   Clear
2:00 PM 78 °F 51 °F 28% 29.99 in 12 mi South 6.7 mph - -   Scattered Clouds
2:00 PM 78.8 °F 51.8 °F 39% 30.01 in - SSW 11.5 mph - N/A   Clear
2:30 PM 77.0 °F 51.8 °F 41% 29.98 in - SSW 10.4 mph - N/A   Clear
3:00 PM 78.8 °F 50.0 °F 36% 29.98 in - Variable 10.4 mph - N/A   Clear
3:30 PM 78.8 °F 53.6 °F 42% 29.98 in - SSW 10.4 mph - N/A   Clear
4:00 PM 78.8 °F 55.4 °F 44% 29.95 in - South 9.2 mph - N/A   Clear
4:30 PM 78.8 °F 55.4 °F 44% 29.95 in - South 10.4 mph - N/A   Clear
5:00 PM 79 °F 48 °F 23% 29.94 in 12 mi South 8.9 mph - -   Scattered Clouds
5:00 PM 78.8 °F 48.2 °F 34% 29.95 in - South 12.7 mph - N/A   Clear
5:30 PM 78.8 °F 50.0 °F 36% 29.95 in - South 12.7 mph 28.8 mph N/A   Clear
6:00 PM 77.0 °F 50.0 °F 39% 29.95 in - SSW 9.2 mph - N/A   Clear
6:30 PM 77.0 °F 51.8 °F 41% 29.95 in - SSW 5.8 mph - N/A   Clear
7:00 PM 77.0 °F 53.6 °F 44% 29.95 in - South 4.6 mph - N/A   Clear
7:30 PM 75.2 °F 53.6 °F 47% 29.95 in - South 4.6 mph - N/A   Clear
8:00 PM 72 °F 55 °F 44% 29.94 in 12 mi Calm Calm - -   Clear
8:00 PM 73.4 °F 55.4 °F 53% 29.95 in - SSE 4.6 mph - N/A   Clear
8:30 PM 71.6 °F 53.6 °F 53% 29.95 in - SSE 5.8 mph - N/A   Clear
9:00 PM 68.0 °F 55.4 °F 64% 29.95 in - South 3.5 mph - N/A   Clear
9:30 PM 68.0 °F 55.4 °F 64% 29.95 in - SSE 4.6 mph - N/A   Clear
10:00 PM 66.2 °F 55.4 °F 68% 29.95 in - South 5.8 mph - N/A   Clear
10:30 PM 64.4 °F 55.4 °F 73% 29.95 in - SSE 5.8 mph - N/A   Clear
11:00 PM 64 °F 53 °F 60% 29.95 in 12 mi SSE 2.2 mph - -   Scattered Clouds
11:00 PM 64.4 °F 53.6 °F 68% 29.95 in - SSE 5.8 mph - N/A   Clear
11:30 PM 62.6 °F 55.4 °F 77% 29.95 in - South 4.6 mph - N/A   Clear